Regional Weather Roundup
Issued by NWS Goodland, KS

Home | Current Version | Previous Version | Text Only | Print | Product List | Glossary On
Versions: 1 2 3 4 5 6 7 8 9 10 11 12 13 14 15 16 17 18 19 20 21 22 23 24 25 26 27 28 29 30 31 32 33 34 35 36 37 38 39 40 41 42 43 44 45 46 47 48 49 50
000
ASUS43 KGLD 231308
RWRGLD

GOODLAND FORECAST AREA HOURLY WEATHER ROUNDUP
NATIONAL WEATHER SERVICE GOODLAND KS
600 AM MST THU NOV 23 2017

...OFFICIAL OBSERVATIONS...

CITY           SKY/WX    TMP DP  RH WIND       PRES   REMARKS
GOODLAND KS    CLOUDY    40  36  86 W10       30.15F
HILL CITY KS   CLEAR     40  37  89 W9        30.10S
IMPERIAL NEB   CLOUDY    42  38  85 W7        30.12S
MCCOOK NEB     CLOUDY    41  37  86 W12       30.09F
AKRON CO       CLOUDY    43  34  70 W12       30.17F
BURLINGTON CO  CLOUDY    39  35  86 W9        30.19F
LIMON CO       CLOUDY    30  28  92 N7        30.24F
$$

...UNOFFICIAL OBSERVATIONS...

CITY           SKY/WX    TMP DP  RH WIND       PRES   REMARKS
COLBY KS       CLOUDY    41  39  93 W8        30.14S
LENORA KS        N/A     43  32  65 W7          N/A
NORTON KS      CLEAR     36  30  80 SW9       30.07
SHARON SPRINGS   N/A     44  38  79 W8          N/A
KIT CARSON CO    N/A     40  32  74 CALM        N/A
YUMA CO        FAIR      41  34  75 W10       30.16F
$$



USA.gov is the U.S. government's official web portal to all federal, state and local government web resources and services.